Location: Multiple Mirror Telescope
(31.6889°N, 110.8853°W)
Time: 09:15:49
(UTC-07:00)

Tiangong - Pass Details

Date: 03 June 2024
Orbit: 376 x 378 km, 41.5° (Epoch: 09 September)

Event Time Altitude Azimuth Distance (km) Brightness Sun altitude
Exits shadow 04:45:09 - 276° (W) 1,840 0.8 -7.0°
Reaches altitude 10° 04:46:31 10° 262° (W) 1,413 0.2 -6.8°
Maximum altitude 04:48:41 17° 219° (SW) 1,077 -0.5 -6.4°
Drops below altitude 10° 04:50:53 10° 176° (S) 1,430 0.5 -6.0°
Sets 04:53:28 0° 155° (SSE) 2,299 1.7 -5.5°
